Miscellaneous Local Product
Issued by NWS Hastings, NE

Home | Current Version | Previous Version | Graphics & Text | Print | Product List | Glossary On
Versions: 1 2 3 4 5 6 7 8 9 10 11 12 13 14 15 16 17 18 19 20 21 22 23 24 25 26 27 28 29 30 31 32 33 34 35 36 37 38 39 40 41 42 43 44 45 46 47 48 49 50
000
AXUS43 KGID 212210
MISGRI

GID CWA HOURLY WEATHER ROUNDUP
NATIONAL WEATHER SERVICE HASTINGS NE
500 PM CDT SUN SEP 21 2014

NOTE: "FAIR" INDICATES FEW OR NO CLOUDS BELOW 12,000 FEET WITH NO
SIGNIFICANT WEATHER AND/OR OBSTRUCTIONS TO VISIBILITY.

...SOUTH CENTRAL NEBRASKA...

CITY           SKY/WX    TMP DP  RH WIND       PRES   REMARKS
GRAND ISLAND   SUNNY     74  42  31 NE13      30.25F
HASTINGS       SUNNY     74  40  29 N12       30.25S
KEARNEY        SUNNY     73  41  31 N13       30.26S
ORD            SUNNY     73  41  31 N13       30.25S
YORK           SUNNY     70  48  46 N6        30.24S
AURORA         SUNNY     73  37  27 N8        30.24F
LEXINGTON      SUNNY     76  40  27 N5        30.26F
HOLDREGE       SUNNY     73  36  25 N7        30.26S
HEBRON         SUNNY     75  37  25 N9G16     30.23S

...NEBRASKA PANHANDLE...

CITY           SKY/WX    TMP DP  RH WIND       PRES   REMARKS
CHADRON        SUNNY     76  40  27 VRB6      30.25F
ALLIANCE       SUNNY     74  39  28 SE6       30.29F
SCOTTSBLUFF    SUNNY     74  40  29 E17       30.28F
SIDNEY         SUNNY     74  39  28 SE12      30.31F

...WESTERN AND NORTH CENTRAL NEBRASKA...

CITY           SKY/WX    TMP DP  RH WIND       PRES   REMARKS
VALENTINE      SUNNY     75  37  25 MISG      30.28F
AINSWORTH      SUNNY     71  37  29 N8        30.28F
ONEILL         SUNNY     71  45  40 N9        30.27S
BROKEN BOW     SUNNY     76  36  23 NE9       30.26F
IMPERIAL       MOSUNNY   76  37  24 VRB6      30.28F
NORTH PLATTE   SUNNY     76  38  25 VRB6      30.27F
MCCOOK         SUNNY     78  39  24 NE8       30.26F

...EASTERN NEBRASKA...

CITY           SKY/WX    TMP DP  RH WIND       PRES   REMARKS
NORFOLK        SUNNY     72  44  36 N16       30.23S
SO SIOUX CITY  PTSUNNY   69  48  47 N12       30.22R
TEKAMAH        MOSUNNY   73  46  38 N15       30.21S
COLUMBUS       SUNNY     72  45  37 N10G17    30.25R
ALBION         SUNNY     72  41  33 N14       30.25S
OMAHA EPPLEY   MOSUNNY   72  46  39 N17       30.20S
OFFUTT AFB     SUNNY     72  50  45 N13       30.20S
MILLARD        MOSUNNY   72  48  43 N7G17     30.20F
LINCOLN        LGT RAIN  74  45  35 N16G23    30.22S
NEBRASKA CITY    N/A     71  34  25 N15G23    30.19S
BEATRICE       SUNNY     74  45  35 N13G20    30.21F
FALLS CITY     SUNNY     74  48  39 N13G20    30.17S

...NORTHERN KANSAS...

CITY           SKY/WX    TMP DP  RH WIND       PRES   REMARKS
GOODLAND       PTSUNNY   74  38  27 VRB3      30.30F
HILL CITY      SUNNY     79  37  22 E6        30.25F
NORTON         CLEAR     79  30  17 N10       30.24F
PHILLIPSBURG   SUNNY     79  34  19 N7        30.24F
SMITH CENTER   SUNNY     77  37  24 N12G17    30.23F
BELOIT         SUNNY     79  37  22 N9        30.21S
HAYS           SUNNY     79  41  25 NE13      30.23F
RUSSELL        SUNNY     78  38  23 N9        30.21F
CONCORDIA      SUNNY     76  42  29 N15       30.21S
SALINA         SUNNY     78  43  28 N14       30.20F
TOPEKA         SUNNY     77  47  34 NW13      30.17S



USA.gov is the U.S. government's official web portal to all federal, state and local government web resources and services.